Weather History for Longview, TX

Change the Weather History Date:

Tuesday, November 26, 2013

  Actual Average Record
Temperature  
Mean Temperature 41 °F 52 °F  
Max Temperature 45 °F 63 °F 87 °F (1965)
Min Temperature 36 °F 42 °F 21 °F (1916)
Degree Days  
Heating Degree Days 24 13  
Month to date heating degree days 285 226  
Since 1 July heating degree days 334 315  
Cooling Degree Days 0 0  
Month to date cooling degree days 15 22  
Year to date cooling degree days 2727 2417  
Moisture  
Dew Point 35 °F    
Average Humidity 79    
Maximum Humidity 92    
Minimum Humidity 65    
Precipitation  
Precipitation 0.31 in 0.15 in 2.32 in (1988)
Month to date precipitation 4.22 3.84  
Year to date precipitation 36.40 42.41  
Snow  
Snow 0.00 in - - ()
Month to date snowfall 0.0  
Since 1 July snowfall 0.0  
Since 1 September snowfall 0.0  
Snow Depth 0.00 in    
Sea Level Pressure  
Sea Level Pressure 30.13 in    
Wind  
Wind Speed 9 mph (NNW)    
Max Wind Speed 17 mph    
Max Gust Speed 25 mph    
Visibility 6 miles    
Events Rain    
T = Trace of Precipitation, MM = Missing Value Source: NWS Daily Summary

Daily Weather History Graph

Daily Weather History Graph

Search for Another Location

Airport:

Trip Planner

Search our weather history database for the weather conditions in past years. The results will help you decide how hot, cold, wet, or windy it might be!

Date:

Astronomy

Nov. 26, 2013 Rise Set
Actual Time 6:58 AM CST 5:14 PM CST
Civil Twilight 6:31 AM CST 5:40 PM CST
Nautical Twilight 6:01 AM CST 6:10 PM CST
Astronomical Twilight 5:32 AM CST 6:40 PM CST
Moon 12:24 AM CST (11/26) 1:01 PM CST (11/26)
Length of Visible Light 11h 08m
Length of Day
10h 15m
Last Quarter, 41% of the Moon is Illuminated
Nov 26
Last Quarter
Dec 2
New
Dec 9
First Quarter
Dec 17
Full
Dec 25
Last Quarter

Hourly Weather History & Observations

Time (CST) Temp. Windchill Dew Point Humidity Pressure Visibility Wind Dir Wind Speed Gust Speed Precip Events Conditions
12:53 AM 36.0 °F 29.6 °F 34.0 °F 93% 30.12 in 4.0 mi NNW 8.1 mph - 0.00 in Rain Light Rain
1:53 AM 37.0 °F 31.0 °F 34.0 °F 89% 30.09 in 5.0 mi North 8.1 mph - 0.00 in   Overcast
2:53 AM 37.0 °F 30.4 °F 34.0 °F 89% 30.09 in 6.0 mi NNW 9.2 mph - 0.00 in   Overcast
3:53 AM 37.0 °F 29.8 °F 34.0 °F 89% 30.06 in 8.0 mi North 10.4 mph - N/A   Overcast
4:53 AM 37.0 °F 29.8 °F 35.1 °F 93% 30.12 in 4.0 mi NNW 10.4 mph - 0.02 in Rain Light Rain
5:53 AM 37.0 °F 30.4 °F 35.1 °F 93% 30.12 in 6.0 mi NNW 9.2 mph - 0.01 in   Overcast
6:53 AM 37.0 °F 31.0 °F 35.1 °F 93% 30.09 in 6.0 mi North 8.1 mph - 0.00 in Rain Light Rain
7:53 AM 37.9 °F 30.5 °F 35.1 °F 89% 30.12 in 3.0 mi NNW 11.5 mph - 0.01 in Rain Light Rain
8:53 AM 37.0 °F 29.8 °F 35.1 °F 93% 30.14 in 4.0 mi NNW 10.4 mph - 0.02 in Rain Light Rain
9:26 AM 37.4 °F 30.3 °F 35.6 °F 93% 30.13 in 2.5 mi NNW 10.4 mph - 0.05 in Rain Light Rain
9:43 AM 37.4 °F 30.8 °F 35.6 °F 93% 30.13 in 3.0 mi NNW 9.2 mph - 0.08 in Rain Light Rain
9:53 AM 37.9 °F 31.5 °F 36.0 °F 93% 30.15 in 4.0 mi NNW 9.2 mph - 0.08 in Rain Light Rain
10:31 AM 37.4 °F 30.3 °F 35.6 °F 93% 30.12 in 2.5 mi NNW 10.4 mph - 0.04 in Rain Rain
10:41 AM 37.4 °F 29.8 °F 35.6 °F 93% 30.12 in 3.0 mi NNW 11.5 mph - 0.05 in Rain Light Rain
10:48 AM 39.2 °F 31.2 °F 35.6 °F 87% 30.11 in 2.5 mi NNW 13.8 mph 19.6 mph 0.05 in Rain Light Rain
10:53 AM 39.0 °F 31.0 °F 36.0 °F 89% 30.13 in 2.5 mi NNW 13.8 mph 19.6 mph 0.05 in Rain Light Rain
11:00 AM 39.2 °F 32.0 °F 35.6 °F 87% 30.11 in 3.0 mi NNW 11.5 mph - 0.00 in Rain Light Rain
11:53 AM 37.9 °F 29.6 °F 35.1 °F 89% 30.11 in 3.0 mi NNW 13.8 mph - 0.04 in Rain Light Rain
12:53 PM 39.9 °F 34.5 °F 37.0 °F 89% 30.10 in 4.0 mi NNW 8.1 mph - 0.06 in Rain Light Rain
1:53 PM 41.0 °F 35.2 °F 37.9 °F 89% 30.09 in 5.0 mi NNW 9.2 mph - 0.01 in Rain Light Rain
2:11 PM 42.8 °F 37.0 °F 37.4 °F 81% 30.07 in 8.0 mi NNW 10.4 mph - 0.00 in   Overcast
2:53 PM 42.1 °F 36.6 °F 37.9 °F 85% 30.09 in 10.0 mi NNW 9.2 mph - 0.00 in Rain Light Rain
3:00 PM 42.8 °F 38.0 °F 37.4 °F 81% 30.08 in 9.0 mi NNW 8.1 mph - 0.01 in Rain Light Rain
3:27 PM 42.8 °F 38.0 °F 39.2 °F 87% 30.08 in 10.0 mi NW 8.1 mph - 0.01 in   Overcast
3:53 PM 43.0 °F 38.2 °F 39.0 °F 86% 30.10 in 10.0 mi NW 8.1 mph - 0.01 in   Mostly Cloudy
4:53 PM 45.0 °F 41.2 °F 37.9 °F 76% 30.11 in 10.0 mi NW 6.9 mph - N/A   Overcast
5:53 PM 41.0 °F 38.0 °F 37.0 °F 86% 30.14 in 10.0 mi WNW 4.6 mph - N/A   Scattered Clouds
6:53 PM 39.9 °F 35.8 °F 35.1 °F 83% 30.17 in 10.0 mi NW 5.8 mph - N/A   Clear
7:53 PM 41.0 °F 35.8 °F 33.1 °F 73% 30.19 in 10.0 mi NW 8.1 mph - N/A   Clear
8:53 PM 39.9 °F 35.1 °F 30.9 °F 70% 30.22 in 10.0 mi NW 6.9 mph - N/A   Clear
9:53 PM 41.0 °F 35.2 °F 30.0 °F 65% 30.24 in 10.0 mi NNW 9.2 mph - N/A   Clear
10:53 PM 39.9 °F 32.9 °F 30.0 °F 68% 30.26 in 10.0 mi NNW 11.5 mph - N/A   Clear
11:53 PM 39.9 °F 31.8 °F 28.9 °F 65% 30.27 in 10.0 mi NNW 15.0 mph 23.0 mph N/A   Clear